This is the latest recevied weather packets stored in our database for station/object IT9FBN-3. If no packets are shown the sender has not sent any weather packets the latest 10 day(s).
| Time | Temp. | Humidity | Pressure | Rain* | Wind** | Luminosity | Snow |
|---|---|---|---|---|---|---|---|
| 1777616703 | 15.56° C | 84% | 1019.1 hPa | 0 mm | - | - | - |
| 1777616403 | 15.56° C | 83% | 1019.2 hPa | 0 mm | - | - | - |
| 1777616103 | 15° C | 83% | 1019.2 hPa | 0 mm | - | - | - |
| 1777615803 | 15.56° C | 84% | 1019.2 hPa | 0 mm | - | - | - |
| 1777615503 | 15° C | 83% | 1019.1 hPa | 0 mm | - | - | - |
| 1777615203 | 15° C | 81% | 1019.1 hPa | 0 mm | - | - | - |
| 1777614903 | 15° C | 80% | 1019 hPa | 0 mm | - | - | - |
| 1777614604 | 14.44° C | 81% | 1018.9 hPa | 0 mm | - | - | - |
| 1777614303 | 14.44° C | 80% | 1018.9 hPa | 0 mm | - | - | - |
| 1777614003 | 14.44° C | 79% | 1018.7 hPa | 0 mm | - | - | - |
| 1777613704 | 14.44° C | 78% | 1018.8 hPa | 0 mm | - | - | - |
| 1777613403 | 13.89° C | 79% | 1018.5 hPa | 0 mm | - | - | - |
| 1777613103 | 13.89° C | 80% | 1018.6 hPa | 0 mm | - | - | - |
| 1777612804 | 13.89° C | 81% | 1018.6 hPa | 0 mm | - | - | - |
| 1777612503 | 13.89° C | 81% | 1018.6 hPa | 0 mm | - | - | - |
| 1777612203 | 13.89° C | 81% | 1018.6 hPa | 0 mm | - | - | - |
| 1777611904 | 13.89° C | 80% | 1018.7 hPa | 0 mm | - | - | - |
| 1777611603 | 13.33° C | 77% | 1018.6 hPa | 0 mm | - | - | - |
| 1777611303 | 13.33° C | 75% | 1018.6 hPa | 0 mm | - | - | - |
| 1777611003 | 13.33° C | 83% | 1018.6 hPa | 0 mm | - | - | - |
| 1777610703 | 13.33° C | 83% | 1018.6 hPa | 0 mm | - | - | - |
| 1777610404 | 13.33° C | 83% | 1018.6 hPa | 0 mm | - | - | - |
| 1777610104 | 13.33° C | 83% | 1018.4 hPa | 0 mm | - | - | - |
| 1777609803 | 13.33° C | 83% | 1018.4 hPa | 0 mm | - | - | - |
| 1777609503 | 13.33° C | 83% | 1018.4 hPa | 0 mm | - | - | - |
* Rain latest hour (hover to see other rain measurements)
** Current wind speed in m/s (hover to see current wind gust speed)